EW1744 Weather Reports


time (UTC)temp
C
wind
direction
speed
KPH
gust
KPH
rain 1hr
cm
rain 24hr
cm
rain mn
cm
humidity
%
barometer
mb
20260507091531 9 326 1.6 9.7 0.00 0.00 0.00 85 1006.8
20260507091018 9 286 1.6 9.7 0.00 0.00 0.00 85 1007.1
20260507090246 9 303 0.0 8.0 0.00 0.00 0.00 85 1006.9
20260507085516 9 302 1.6 8.0 0.00 0.00 0.00 85 1007.2
20260507085016 9 294 1.6 8.0 0.00 0.00 0.00 84 1006.8
20260507085005 9 327 0.0 8.0 0.00 0.00 0.00 84 1006.7
20260507084015 9 313 0.0 4.8 0.00 0.00 0.00 84 1006.6
20260507083515 9 335 1.6 4.8 0.00 0.00 0.00 83 1006.8
20260507083016 10 294 1.6 4.8 0.00 0.00 0.00 83 1006.7
20260507082514 10 262 1.6 8.0 0.00 0.00 0.00 82 1006.4
20260507082014 10 39 3.2 12.9 0.00 0.00 0.00 81 1006.5
20260507081737 10 335 3.2 12.9 0.00 0.00 0.00 80 1006.6
20260507081012 10 33 4.8 14.5 0.00 0.00 0.00 79 1006.5
20260507080514 10 335 4.8 14.5 0.00 0.00 0.00 79 1006.8
20260507080012 10 319 4.8 14.5 0.00 0.00 0.00 80 1006.6
20260507075513 10 302 4.8 14.5 0.00 0.00 0.00 80 1006.5
20260507075231 10 288 3.2 12.9 0.00 0.00 0.00 80 1006.3
20260507074738 10 333 4.8 12.9 0.00 0.00 0.00 81 1006.1
20260507074008 10 278 4.8 12.9 0.00 0.00 0.00 81 1006.3
20260507073508 10 291 3.2 12.9 0.00 0.00 0.00 81 1006.3
20260507073008 10 300 3.2 12.9 0.00 0.00 0.00 80 1006.0
20260507072507 10 301 4.8 12.9 0.00 0.00 0.00 80 1006.2
20260507072009 10 287 4.8 14.5 0.00 0.00 0.00 80 1006.3
20260507071507 10 291 4.8 14.5 0.00 0.00 0.00 80 1006.6
20260507071002 10 315 3.2 14.5 0.00 0.00 0.00 80 1006.1
20260507070956 10 317 3.2 14.5 0.00 0.00 0.00 80 1006.0
20260507070004 10 329 3.2 12.9 0.00 0.00 0.00 80 1006.1
20260507065503 11 345 4.8 12.9 0.00 0.00 0.00 80 1006.1
20260507065016 11 269 4.8 12.9 0.00 0.00 0.00 80 1006.3
20260507064502 11 300 4.8 12.9 0.00 0.00 0.00 79 1005.8
20260507064002 11 288 4.8 9.7 0.00 0.00 0.00 79 1005.9
20260507063728 11 306 3.2 9.7 0.00 0.00 0.00 79 1005.9
20260507063003 11 274 3.2 12.9 0.00 0.00 0.00 80 1005.8
20260507062728 11 329 3.2 12.9 0.00 0.00 0.00 80 1005.7
20260507062239 11 298 4.8 14.5 0.00 0.00 0.00 79 1005.7
20260507061504 11 319 4.8 14.5 0.00 0.00 0.00 79 1005.8
20260507060957 11 301 3.2 16.1 0.00 0.00 0.00 80 1005.7
20260507060457 11 288 4.8 16.1 0.00 0.00 0.00 80 1005.7
20260507055957 11 20 3.2 12.9 0.00 0.00 0.00 80 1006.1
20260507055457 11 358 3.2 11.3 0.00 0.00 0.00 80 1006.0
20260507054958 11 307 1.6 11.3 0.00 0.00 0.00 80 1006.0
20260507054459 11 332 1.6 6.4 0.00 0.00 0.00 81 1006.1
20260507054001 11 348 1.6 11.3 0.00 0.00 0.00 81 1005.9
20260507053501 11 342 1.6 11.3 0.00 0.00 0.00 81 1006.1
20260507053001 11 304 1.6 11.3 0.00 0.00 0.00 81 1006.1
20260507052500 11 320 1.6 11.3 0.00 0.00 0.00 81 1005.9
20260507051958 12 323 1.6 11.3 0.00 0.00 0.00 81 1005.8
20260507051458 12 321 1.6 11.3 0.00 0.00 0.00 82 1005.5
20260507051216 12 319 3.2 11.3 0.00 0.00 0.00 81 1005.7
20260507050453 12 321 3.2 11.3 0.00 0.00 0.00 81 1005.7
20260507045951 12 333 3.2 11.3 0.00 0.00 0.00 81 1005.7
20260507045450 12 283 3.2 11.3 0.00 0.00 0.00 81 1005.7
20260507044948 12 311 3.2 11.3 0.00 0.00 0.00 82 1005.5
20260507044447 12 325 1.6 9.7 0.00 0.00 0.00 82 1005.7
20260507043947 12 46 1.6 12.9 0.00 0.00 0.00 82 1005.8
20260507043713 12 284 3.2 12.9 0.00 0.00 0.00 82 1006.0
20260507042947 12 274 3.2 12.9 0.00 0.00 0.00 82 1005.9
20260507042447 13 257 3.2 12.9 0.00 0.00 0.00 81 1005.8
20260507041947 13 340 3.2 9.7 0.00 0.00 0.00 81 1005.5
20260507041447 13 327 1.6 8.0 0.00 0.00 0.00 81 1005.4
20260507040948 13 336 3.2 22.5 0.00 0.00 0.00 81 1005.4
20260507040446 13 293 4.8 22.5 0.00 0.00 0.00 82 1005.3
20260507040203 13 319 6.4 22.5 0.00 0.00 0.00 82 1005.2
20260507035707 13 329 6.4 22.5 0.00 0.00 0.00 83 1005.1
20260507034942 14 294 4.8 14.5 0.00 0.00 0.00 85 1005.0
20260507034700 14 309 3.2 20.9 0.00 0.00 0.00 86 1004.9
20260507034211 15 345 4.8 20.9 0.00 0.00 0.00 87 1004.8
20260507033443 15 309 6.4 20.9 0.00 0.00 0.00 87 1004.8
20260507032956 15 311 4.8 20.9 0.00 0.00 0.00 88 1005.0
20260507032930 15 284 3.2 12.9 0.00 0.00 0.00 89 1005.0
20260507031943 15 281 1.6 8.0 0.00 0.00 0.00 90 1004.9
20260507031442 15 322 3.2 11.3 0.00 0.00 0.00 90 1004.8
20260507031204 15 327 4.8 11.3 0.00 0.00 0.00 90 1004.6
20260507030441 15 215 3.2 11.3 0.00 0.00 0.00 90 1004.4
20260507025941 15 288 3.2 11.3 0.00 0.00 0.00 90 1004.4
20260507025441 15 300 3.2 9.7 0.00 0.00 0.00 90 1004.3
20260507024941 15 266 3.2 8.0 0.00 0.00 0.00 90 1004.3
20260507024713 15 213 1.6 11.3 0.00 0.00 0.00 90 1004.3
20260507023955 15 288 3.2 11.3 0.00 0.00 0.00 90 1004.3
20260507023442 15 295 3.2 11.3 0.00 0.00 0.00 90 1004.3
20260507022940 15 297 3.2 11.3 0.00 0.00 0.00 90 1004.4
20260507022440 15 283 3.2 9.7 0.00 0.00 0.00 90 1004.4
20260507022201 15 335 3.2 9.7 0.00 0.00 0.00 90 1004.3
20260507021440 15 270 3.2 9.7 0.00 0.00 0.00 90 1004.5
20260507020939 15 298 3.2 9.7 0.00 0.00 0.00 90 1004.5
20260507020439 15 255 3.2 9.7 0.00 0.00 0.00 90 1004.6
20260507015939 15 248 3.2 9.7 0.00 0.00 0.00 90 1004.7
20260507015439 15 217 3.2 9.7 0.00 0.00 0.00 91 1004.6
20260507014938 15 330 3.2 9.7 0.00 0.00 0.00 91 1004.7
20260507014438 15 257 3.2 9.7 0.00 0.00 0.00 91 1004.8
20260507013938 15 263 3.2 9.7 0.00 0.00 0.00 91 1004.8
20260507013438 15 295 3.2 11.3 0.00 0.00 0.00 91 1004.8
20260507012938 15 262 3.2 11.3 0.00 0.00 0.00 92 1004.9
20260507012438 15 234 1.6 9.7 0.00 0.00 0.00 92 1004.8
20260507012155 15 264 1.6 9.7 0.00 0.00 0.00 91 1004.9
20260507011703 14 276 0.0 4.8 0.00 0.00 0.00 91 1005.0
20260507010937 14 264 0.0 4.8 0.00 0.00 0.00 91 1004.9
20260507010708 14 262 0.0 1.6 0.00 0.00 0.00 91 1004.9
20260507010417 14 238 0.0 1.6 0.00 0.00 0.00 91 1005.0
20260507005437 14 266 0.0 1.6 0.00 0.00 0.00 91 1005.0
20260507005155 14 266 0.0 1.6 0.00 0.00 0.00 91 1005.1
20260507004436 14 266 0.0 1.6 0.00 0.00 0.00 91 1005.1
20260507004206 14 162 0.0 1.6 0.00 0.00 0.00 91 1005.0
20260507003659 14 143 0.0 1.6 0.00 0.00 0.00 91 1004.9
20260507002936 14 220 0.0 1.6 0.00 0.00 0.00 91 1004.9
20260507002436 14 226 0.0 1.6 0.00 0.00 0.00 91 1005.0
20260507002211 14 140 0.0 1.6 0.00 0.00 0.00 91 1004.8
20260507001718 14 220 0.0 3.2 0.00 0.00 0.00 91 1004.9
20260507001154 14 262 0.0 3.2 0.00 0.00 0.00 91 1004.8
20260507000435 14 205 0.0 3.2 0.00 0.00 0.00 91 1004.8
20260506235933 14 203 0.0 3.2 0.00 0.00 0.00 91 1004.7
20260506235434 14 248 0.0 6.4 0.00 0.00 0.00 91 1004.7
20260506234934 14 153 0.0 6.4 0.00 0.00 0.00 90 1004.7
20260506234434 14 187 0.0 6.4 0.00 0.00 0.00 90 1004.9
20260506233931 14 180 0.0 6.4 0.00 0.00 0.00 90 1004.9
20260506233431 14 141 0.0 4.8 0.00 0.00 0.00 90 1004.8
20260506232933 14 138 0.0 4.8 0.00 0.00 0.00 90 1004.9
20260506232432 14 250 0.0 4.8 0.00 0.00 0.00 90 1005.0
20260506231932 14 219 0.0 3.2 0.00 0.00 0.00 90 1005.0
20260506231433 14 176 0.0 1.6 0.00 0.00 0.00 90 1005.0
20260506230932 14 132 0.0 1.6 0.00 0.00 0.00 90 1005.0
20260506230429 14 263 0.0 3.2 0.00 0.00 0.00 90 1005.0
20260506225929 14 240 0.0 3.2 0.00 0.00 0.00 90 1005.0
20260506225429 14 257 0.0 3.2 0.00 0.00 0.00 90 1005.0
20260506224929 14 234 0.0 3.2 0.00 0.00 0.00 90 1005.0
20260506224429 14 274 0.0 3.2 0.00 0.00 0.00 90 1005.0
20260506224415 14 210 0.0 1.6 0.00 0.00 0.00 90 1005.1
20260506223431 14 196 0.0 3.2 0.00 0.00 0.00 89 1005.1
20260506222930 15 146 0.0 3.2 0.00 0.00 0.00 89 1005.2
20260506222430 15 177 0.0 3.2 0.00 0.00 0.00 89 1005.2
20260506222420 15 170 0.0 3.2 0.00 0.00 0.00 89 1005.2
20260506221427 15 212 0.0 1.6 0.00 0.00 0.00 89 1005.3
20260506220927 15 133 0.0 1.6 0.00 0.00 0.00 89 1005.3
20260506220649 15 179 0.0 9.7 0.00 0.00 0.00 89 1005.4
20260506215926 15 188 0.0 9.7 0.00 0.00 0.00 89 1005.5
20260506215427 15 156 0.0 9.7 0.00 0.00 0.00 89 1005.5
20260506215150 15 224 0.0 9.7 0.00 0.00 0.00 89 1005.5
20260506214428 15 174 0.0 4.8 0.00 0.00 0.00 89 1005.5
20260506213928 15 156 1.6 6.4 0.00 0.00 0.00 89 1005.6
20260506213649 15 238 1.6 6.4 0.00 0.00 0.00 89 1005.7
20260506213151 15 250 1.6 9.7 0.00 0.00 0.00 88 1005.8
20260506212428 15 141 1.6 9.7 0.00 0.00 0.00 88 1005.9
20260506211928 15 250 1.6 9.7 0.00 0.00 0.00 88 1005.9
20260506211425 15 198 1.6 9.7 0.00 0.00 0.00 88 1005.9
20260506210925 15 119 1.6 4.8 0.00 0.00 0.00 88 1005.9
20260506210425 15 240 1.6 4.8 0.00 0.00 0.00 87 1005.9
20260506205925 15 175 1.6 4.8 0.00 0.00 0.00 87 1006.0
20260506205425 15 262 0.0 4.8 0.00 0.00 0.00 87 1006.0
20260506204925 15 269 0.0 4.8 0.00 0.00 0.00 86 1005.9
20260506204647 15 25 0.0 4.8 0.00 0.00 0.00 86 1006.0
20260506203927 15 181 0.0 4.8 0.00 0.00 0.00 86 1006.0
20260506203426 15 260 1.6 4.8 0.00 0.00 0.00 86 1006.1
20260506202926 15 265 1.6 8.0 0.00 0.00 0.00 85 1006.1
20260506202426 15 251 1.6 8.0 0.00 0.00 0.00 85 1006.1
20260506201926 16 179 1.6 6.4 0.00 0.00 0.00 85 1006.1
20260506201651 16 233 0.0 6.4 0.00 0.00 0.00 84 1006.0
20260506200924 16 250 0.0 6.4 0.00 0.00 0.00 84 1005.8
20260506200422 16 229 0.0 6.4 0.00 0.00 0.00 83 1005.8
20260506200149 16 243 0.0 6.4 0.00 0.00 0.00 82 1005.9
20260506195425 16 235 0.0 3.2 0.00 0.00 0.00 82 1005.9
20260506195145 16 172 0.0 3.2 0.00 0.00 0.00 82 1005.9
20260506194436 17 160 0.0 3.2 0.00 0.00 0.00 81 1005.9
20260506193924 17 271 0.0 1.6 0.00 0.00 0.00 81 1006.0
20260506193424 17 168 0.0 9.7 0.00 0.00 0.00 81 1006.2
20260506192924 17 262 0.0 9.7 0.00 0.00 0.00 80 1006.3
20260506192424 17 213 1.6 9.7 0.00 0.00 0.00 78 1006.5
20260506191921 17 276 1.6 9.7 0.00 0.00 0.00 77 1006.7
20260506191421 17 42 1.6 9.7 0.00 0.00 0.00 78 1006.4
20260506190920 17 193 1.6 6.4 0.00 0.00 0.00 77 1006.5
20260506190420 17 330 3.2 11.3 0.00 0.00 0.00 75 1006.4
20260506185921 17 235 3.2 11.3 0.00 0.00 0.00 75 1006.2
20260506185645 17 223 1.6 9.7 0.00 0.00 0.00 74 1006.2
20260506184922 17 128 1.6 9.7 0.00 0.00 0.00 74 1006.1
20260506184422 17 252 3.2 9.7 0.00 0.00 0.00 73 1006.1
20260506183922 17 158 1.6 8.0 0.00 0.00 0.00 72 1006.1
20260506183422 17 166 1.6 12.9 0.00 0.00 0.00 72 1006.2
20260506182923 18 14 3.2 12.9 0.00 0.00 0.00 71 1006.3
20260506182422 18 276 3.2 12.9 0.00 0.00 0.00 70 1006.3
20260506181919 18 240 3.2 12.9 0.00 0.00 0.00 68 1006.3
20260506181421 18 262 4.8 12.9 0.00 0.00 0.00 68 1006.4
20260506180920 18 278 4.8 12.9 0.00 0.00 0.00 68 1006.4
20260506180417 18 150 4.8 12.9 0.00 0.00 0.00 67 1006.3
20260506175916 18 110 4.8 12.9 0.00 0.00 0.00 67 1006.5
20260506175416 18 164 4.8 11.3 0.00 0.00 0.00 67 1006.5
20260506174917 18 217 4.8 11.3 0.00 0.00 0.00 67 1006.5
20260506174416 18 209 4.8 11.3 0.00 0.00 0.00 66 1006.5
20260506173916 19 195 4.8 12.9 0.00 0.00 0.00 66 1006.5
20260506173416 19 258 4.8 12.9 0.00 0.00 0.00 66 1006.6
20260506172917 19 37 4.8 16.1 0.00 0.00 0.00 66 1006.8
20260506172417 19 287 4.8 16.1 0.00 0.00 0.00 66 1006.7
20260506171917 19 143 4.8 16.1 0.00 0.00 0.00 65 1006.7
20260506171416 19 283 3.2 16.1 0.00 0.00 0.00 65 1006.8
20260506170914 19 269 3.2 12.9 0.00 0.00 0.00 66 1006.8
20260506170638 19 52 3.2 12.9 0.00 0.00 0.00 66 1006.9
20260506170136 19 296 3.2 12.9 0.00 0.00 0.00 66 1007.0
20260506165415 19 139 3.2 11.3 0.00 0.00 0.00 66 1007.0
20260506164913 19 203 1.6 11.3 0.00 0.00 0.00 66 1007.2
20260506164414 19 173 1.6 11.3 0.00 0.00 0.00 66 1007.2
20260506163913 19 292 3.2 9.7 0.00 0.00 0.00 66 1007.2
20260506163414 19 160 3.2 9.7 0.00 0.00 0.00 66 1007.3
20260506162914 19 236 3.2 9.7 0.00 0.00 0.00 67 1007.3
20260506162414 19 225 3.2 9.7 0.00 0.00 0.00 66 1007.4
20260506161913 19 195 3.2 9.7 0.00 0.00 0.00 66 1007.7
20260506161412 19 176 1.6 9.7 0.00 0.00 0.00 66 1007.7
20260506161144 19 226 3.2 9.7 0.00 0.00 0.00 67 1007.8
20260506160414 19 172 1.6 11.3 0.00 0.00 0.00 67 1007.9
20260506155926 19 134 1.6 11.3 0.00 0.00 0.00 67 1008.0
20260506155413 19 139 1.6 11.3 0.00 0.00 0.00 67 1008.0
20260506155141 19 62 1.6 11.3 0.00 0.00 0.00 67 1008.2
20260506154413 19 174 1.6 6.4 0.00 0.00 0.00 66 1008.3
20260506153914 19 233 1.6 6.4 0.00 0.00 0.00 66 1008.3
20260506153414 19 159 1.6 6.4 0.00 0.00 0.00 67 1008.4
20260506152913 19 73 1.6 4.8 0.00 0.00 0.00 67 1008.4
20260506152413 19 273 1.6 11.3 0.00 0.00 0.00 66 1008.4
20260506151913 20 183 1.6 11.3 0.00 0.00 0.00 66 1008.4
20260506151632 20 188 3.2 11.3 0.00 0.00 0.00 65 1008.4
20260506150913 20 137 1.6 11.3 0.00 0.00 0.00 64 1008.5
20260506150426 20 154 1.6 9.7 0.00 0.00 0.00 64 1008.6
20260506150129 21 255 3.2 9.7 0.00 0.00 0.00 64 1008.5
20260506145632 21 124 1.6 8.0 0.00 0.00 0.00 63 1008.4
20260506144913 21 160 1.6 6.4 0.00 0.00 0.00 62 1008.2
20260506144413 21 133 1.6 6.4 0.00 0.00 0.00 63 1008.3
20260506143913 21 278 0.0 11.3 0.00 0.00 0.00 64 1008.3
20260506143413 21 162 1.6 11.3 0.00 0.00 0.00 65 1008.2
20260506142913 21 271 3.2 11.3 0.00 0.00 0.00 65 1008.1
20260506142413 21 247 1.6 11.3 0.00 0.00 0.00 65 1008.2
20260506141913 20 72 1.6 9.7 0.00 0.00 0.00 65 1008.1
20260506141414 20 81 3.2 9.7 0.00 0.00 0.00 66 1008.1
20260506141132 20 179 3.2 12.9 0.00 0.00 0.00 66 1008.2
20260506140413 20 284 4.8 12.9 0.00 0.00 0.00 66 1008.2
20260506135913 20 210 4.8 14.5 0.00 0.00 0.00 66 1008.3
20260506135413 20 238 4.8 14.5 0.00 0.00 0.00 67 1008.4
20260506134913 20 287 3.2 14.5 0.00 0.00 0.00 67 1008.5
20260506134413 19 195 3.2 12.9 0.00 0.00 0.00 67 1008.6
20260506133912 19 274 3.2 12.9 0.00 0.00 0.00 68 1008.7
20260506133413 19 268 3.2 11.3 0.00 0.00 0.00 67 1008.7
20260506132913 19 236 3.2 11.3 0.00 0.00 0.00 68 1008.7
20260506132412 19 248 3.2 12.9 0.00 0.00 0.00 68 1008.6
20260506131913 19 255 3.2 12.9 0.00 0.00 0.00 67 1008.6
20260506131426 19 287 3.2 11.3 0.00 0.00 0.00 67 1008.8
20260506130913 19 225 3.2 14.5 0.00 0.00 0.00 68 1008.7
20260506130413 19 231 3.2 14.5 0.00 0.00 0.00 68 1008.7
20260506125913 19 341 3.2 14.5 0.00 0.00 0.00 68 1008.7
20260506125641 19 287 3.2 14.5 0.00 0.00 0.00 68 1008.5
20260506124912 19 257 3.2 12.9 0.00 0.00 0.00 69 1008.6
20260506124852 19 251 3.2 12.9 0.00 0.00 0.00 69 1008.6
20260506123914 18 342 4.8 12.9 0.00 0.00 0.00 69 1008.7
20260506123412 18 253 3.2 12.9 0.00 0.00 0.00 69 1008.8
20260506122911 18 243 3.2 11.3 0.00 0.00 0.00 69 1009.0
20260506122410 18 239 3.2 11.3 0.00 0.00 0.00 70 1008.9
20260506121909 18 176 1.6 8.0 0.00 0.00 0.00 70 1008.9
20260506121410 18 243 3.2 8.0 0.00 0.00 0.00 70 1008.8
20260506120910 18 295 3.2 8.0 0.00 0.00 0.00 70 1009.0
20260506120410 18 191 1.6 6.4 0.00 0.00 0.00 70 1009.1
20260506115909 18 278 1.6 9.7 0.00 0.00 0.00 70 1009.1
20260506115409 18 333 1.6 9.7 0.00 0.00 0.00 70 1009.1
20260506114909 18 205 1.6 9.7 0.00 0.00 0.00 70 1009.2
20260506114409 18 176 1.6 9.7 0.00 0.00 0.00 71 1009.3
20260506113909 17 230 1.6 6.4 0.00 0.00 0.00 71 1009.2
20260506113635 18 338 1.6 6.4 0.00 0.00 0.00 69 1009.4
20260506113133 17 240 1.6 9.7 0.00 0.00 0.00 70 1009.4
20260506112853 17 122 1.6 9.7 0.00 0.00 0.00 70 1009.4
20260506111908 17 283 1.6 9.7 0.00 0.00 0.00 70 1009.3
20260506111408 17 240 1.6 9.7 0.00 0.00 0.00 70 1009.2
20260506111131 17 93 1.6 8.0 0.00 0.00 0.00 71 1009.2
20260506110409 17 252 1.6 8.0 0.00 0.00 0.00 71 1009.4
20260506105908 17 233 1.6 11.3 0.00 0.00 0.00 71 1009.4
20260506105410 17 262 1.6 11.3 0.00 0.00 0.00 71 1009.3
20260506104908 17 284 3.2 11.3 0.00 0.00 0.00 71 1009.3
20260506104852 17 286 3.2 11.3 0.00 0.00 0.00 71 1009.4
20260506104134 17 220 1.6 11.3 0.00 0.00 0.00 71 1009.3
20260506103406 17 264 1.6 6.4 0.00 0.00 0.00 71 1009.4
20260506103128 17 304 1.6 6.4 0.00 0.00 0.00 71 1009.2
20260506102629 17 224 1.6 6.4 0.00 0.00 0.00 71 1009.3
20260506101906 17 257 1.6 6.4 0.00 0.00 0.00 71 1009.4
20260506101407 17 295 1.6 6.4 0.00 0.00 0.00 71 1009.5
20260506100906 17 262 1.6 9.7 0.00 0.00 0.00 70 1009.4
20260506100407 17 272 3.2 9.7 0.00 0.00 0.00 70 1009.4
20260506095907 17 245 3.2 11.3 0.00 0.00 0.00 70 1009.2
20260506095407 17 309 3.2 11.3 0.00 0.00 0.00 70 1009.2
20260506095130 17 259 3.2 12.9 0.00 0.00 0.00 70 1009.3
20260506094406 17 276 4.8 14.5 0.00 0.00 0.00 70 1009.3
20260506093907 17 303 3.2 14.5 0.00 0.00 0.00 70 1009.3
20260506093404 17 214 3.2 11.3 0.00 0.00 0.00 70 1009.2
20260506092903 17 270 3.2 11.3 0.00 0.00 0.00 70 1009.2
20260506092404 17 231 3.2 11.3 0.00 0.00 0.00 70 1009.2